Regional Weather Roundup
Issued by NWS

Home | Current Version | Previous Version | Text Only | Print | Product List | Glossary On
Versions: 1 2 3 4 5 6 7 8 9 10 11 12 13 14 15 16 17 18 19 20 21 22 23 24 25 26 27 28 29 30 31 32 33 34 35 36 37 38 39 40 41 42 43 44 45 46 47 48 49 50
000
ASUS45 KTFX 172210
RWRMT
Montana Regional Weather Roundup
National Weather Service Great Falls MT
400 PM MDT MON MAY 17 2021

NOTE: "FAIR" indicates few or no clouds below 12,000 feet with no
significant weather and/or obstructions to visibility.

MTZ001>007-043-172300-
West of the divide

CITY           SKY/WX    TMP DP  RH WIND       PRES   REMARKS
Kalispell      FAIR      82  36  19 S13       29.71F
Missoula       FAIR      83  32  16 VRB5      29.76F
Butte          FAIR      78  21  12 VRB7      29.87F
Anaconda         N/A     77  25  14 W8        29.84S
Deer Lodge       N/A     77  34  20 N9        29.85F
Hamilton       FAIR      81  36  19 VRB7      29.79F
Mullan Pass    FAIR      62  33  33 SW9G16    29.94F
Ronan            N/A     79  39  24 VRB6G15   29.75F
$$

MTZ008-052>055-172300-
Southwest Montana

CITY           SKY/WX    TMP DP  RH WIND       PRES   REMARKS
Bozeman        FAIR      79  32  18 NE7       29.82F
Dillon         FAIR      76  22  13 SW3G28    29.83F
Ennis          FAIR      75  23  14 VRB3G12   29.90F
Three Forks      N/A     81  32  17 S10       29.81F
Twin Bridges   FAIR      81  19  10 SE9       29.83F
W Yellowstone  FAIR      63  32  31 SW16G22   29.95F
$$

MTZ009-010-012-014-046-048-049-054-172300-
East Slopes and Central Montana

CITY           SKY/WX    TMP DP  RH WIND       PRES   REMARKS
Cut Bank       FAIR      80  28  15 W17G25    29.73F
Great Falls    FAIR      81  35  19 SW12G20   29.74F
Helena         FAIR      83  32  16 VRB7      29.75F
Malmstrom AFB  FAIR      81  34  18 SW9       29.74F
Augusta        FAIR      78  30  17 NW8G18    29.77F
Bowmans Corner FAIR      77  25  14 SW16G24   29.76S
Choteau          N/A     81  27  13 SW10      29.73F
Fairfield      FAIR      81  31  16 SW10G20   29.73F
Raynesford     FAIR      80  34  19 W13       29.76F
Ulm            FAIR      80  38  22 W13       29.74F
$$

MTZ011-013-016-021-045-047-050-051-172300-
North Central Montana

CITY           SKY/WX    TMP DP  RH WIND       PRES   REMARKS
Havre          FAIR      86  36  16 SW14G23   29.67F
Lewistown      FAIR      79  33  19 VRB3      29.78F
Chinook          N/A     88  36  15 SW6       29.67F
Denton         FAIR      80  32  17 E5        29.72F
Fort Benton      N/A     84  36  17 S3        29.69F
Grass Range    FAIR      80  28  15 CALM      29.75F
N Bar Ranch    FAIR      79  30  17 S16       29.82F
Roy            FAIR      79  37  21 NW3       29.76F
Stanford       FAIR      76  36  22 S3        29.80F
Winifred         N/A     78  39  25 CALM      29.76F
$$

MTZ017>020-022>027-061-062-172300-
Northeast Montana

CITY           SKY/WX    TMP DP  RH WIND       PRES   REMARKS
Glasgow        FAIR      87  40  19 S15G29    29.72F
Circle           N/A     84  39  20 S13G23    29.77
Glendive       FAIR      82  43  25 S17G23    29.82F
Jordan           N/A     86  38  18 SW13G26   29.74F
Malta          SUNNY     86  32  14 S14G22    29.67F
Plentywood     SUNNY     84  34  16 S17G26    29.78F
Poplar           N/A     84  41  21 S21       29.75F
Sidney         FAIR      84  40  21 S21G32    29.81F
Wolf Point     FAIR      86  41  20 S17G24    29.75F
$$

MTZ028>42-056>058-172300-
Southcentral and southeast Montana

CITY           SKY/WX    TMP DP  RH WIND       PRES   REMARKS
Baker          FAIR      79  39  23 S25G33    29.88F
Big Timber     SUNNY     77  19  11 NW7       29.82F
Billings       FAIR      78  40  25 CALM      29.80F
Hardin         CLEAR     81  45  28 SE13      29.76
Harlowton      FAIR      78  34  20 S8        29.81F
Laurel           N/A     81  36  19 VRB6      29.80F
Livingston     FAIR      79  31  17 W7G20     29.81F
Miles City     FAIR      83  41  22 SE17G25   29.79F
$$

Regional Reports...Dakotas/MN

CITY           SKY/WX    TMP DP  RH WIND       PRES   REMARKS
Williston      FAIR      85  36  17 S26G41    29.83F
Minot          FAIR      85  40  20 SE18G32   29.87F
Dickinson      FAIR      77  46  33 S26G36    29.90F
Beach          FAIR      79  43  27 S24G32    29.88F
Crosby         FAIR      84  37  18 S21G28    29.80F
Hettinger      FAIR      71  49  45 S16G35    29.95F
Tioga          FAIR      81  41  24 S23G31    29.86S
Watford City   FAIR      81  45  28 S25G31    29.85S
Bismarck       FAIR      82  43  25 S23G33    29.95F
Grand Forks    FAIR      84  38  19 S14G32    29.96F
Fargo          FAIR      83  45  26 S15G24    30.00F
Buffalo SD       N/A     73  46  38 SE23G37   29.90F
Rapid City     FAIR      71  47  42 S15G21    29.95F
Intl Falls     PTSUNNY   82  45  27 CALM      30.02F
Duluth         FAIR      81  44  27 S12       30.08F
Minneapolis    FAIR      79  46  31 SE16G22   30.08F
$$

Regional Reports...WY/CO/ID/WA/OR

CITY           SKY/WX    TMP DP  RH WIND       PRES   REMARKS
Buffalo WY     FAIR      74  42  31 SE14G22   29.92F
Cody           FAIR      73  39  29 SE8       29.89F
Gillette       FAIR      73  40  30 SE12G23   29.90F
Powell         FAIR      72  32  23 S7        29.86F
Sheridan       FAIR      75  42  30 SE12G23   29.84F
Yellowstone La   N/A     59  33  37 CALM      30.06F
Boise          FAIR      84  30  14 VRB3G17   29.82F
Couer d`Alene  FAIR      80  42  25 W17G23    29.78F
Idaho Falls    FAIR      76  38  25 S7        29.89F
Salmon         FAIR     N/A N/A N/A CALM      29.78F
Spokane        FAIR      78  37  22 SW18G29   29.79F
Seattle        CLOUDY    61  47  59 SW12      29.94S
Portland       PTSUNNY   64  48  56 NE5       29.98F
$$

Regional Reports...Alberta

CITY           SKY/WX    TMP DP  RH WIND       PRES   REMARKS
Calgary        PTSUNNY   79  27  14 SW14G21   29.57F
Cardston         N/A     75  39  27 SW12G18     N/A
Del Bonita       N/A     75  36  23 SW18        N/A
Edmonton       SUNNY     63  48  59 N18G24    29.62R
Fort McMurray  LGT RAIN  50  48  93 NW15      29.69R
High Level     PTSUNNY   50  41  71 N7        29.75R
Lethbridge     MOSUNNY   82  34  17 S17G30    29.63F
Lloydminster   PTSUNNY   81  37  21 S9G21     29.52F
Medicine Hat   PTSUNNY   88  36  15 SW16G26   29.59F
Milk River       N/A     82  30  15 W18G29      N/A
Onefour          N/A     84  37  18 S10         N/A
Peace River    LGT RAIN  54  41  62 N9        29.72R
Pincher Creek  MOSUNNY   77  36  22 SW26G37   29.67F
Raymond          N/A     81  34  18 SW16        N/A
Waterton Gate    N/A     75  36  23 SW14G30     N/A
Fort Smith NWT CLOUDY    41  37  87 NW5       29.75R
$$

Regional Reports...Saskatchewan

CITY           SKY/WX    TMP DP  RH WIND       PRES   REMARKS
Assiniboia       N/A     86  27  11 SW18G25     N/A
Coronach         N/A     84  36  17 S18G26      N/A
Cypress Hills    N/A     79  32  18 SW13G20     N/A
Estevan        SUNNY     84  39  20 S24G32    29.79F
La Ronge         N/A     59  43  55 NE10        N/A
Moose Jaw        N/A     88  28  11 S22G31      N/A
Prince Albert  PTSUNNY   90  34  13 SW23G31   29.54F
Regina         PTSUNNY   86  37  17 S24G37    29.70F
Rockglen         N/A     82  37  20 S20G29      N/A
Saskatoon      CLOUDY    90  34  13 SW20G30   29.55F
Swift Current  SUNNY     86  36  16 SW21G35   29.65F
Uranium City     N/A     37  34  87 MISG        N/A
Val Marie        N/A     84  28  13 SW15G23     N/A
$$



USA.gov is the U.S. government's official web portal to all federal, state and local government web resources and services.